Flag for Austria Weather past 2 weeks in Perg, Upper Austria, Austria

Now
78 °F

Warm.


Feels Like: 80 °F
Forecast: 62 / 75 °F
Wind: No wind

Location: Amstetten

Current Time: Jul 8, 2015 at 12:02:02 AM

Latest Report: Jul 7, 2015 at 11:00 PM


Visibility: N/A

Pressure: 29.73 "Hg

Humidity: 84%

Dew point: 73 °F

Location of PergLocation

Historic Weather in Perg — Graph

°F

Perg temperature yesterday

Maximum temperature yesterday: 95 °F (at 4:00 PM)
Minimum temperature yesterday: 66 °F (at 6:00 AM)
Average temperature yesterday: 80 °F

Past Weeks' High & Low Weather Summary

 TemperatureHumidityPressure
High95 °F (Jul 5, 5:00 PM)100% (Jul 1, 3:00 AM)30.28 "Hg (Jul 1, 3:00 AM)
Low45 °F (Jun 25, 6:00 AM)24% (Jul 5, 6:00 PM)29.70 "Hg (Jun 23, 3:00 AM)
Average69 °F70%30.11 "Hg
* Reported Jun 22 10:00 PM — Jul 7 10:00 PM, Perg, Weather by CustomWeather, © 2015

Note: Actual official high and low records may vary slightly from our data, if they occured in-between our weather recording intervals... More about our weather records

Advertising

Perg weather history for previous 24 hours

 ConditionsComfort  
Time TempWeatherWind HumidityBarometerVisibility
10:00 PM
Tue, Jul 7
80 °FWarm.No wind81%29.75 "HgN/A
9:00 PM85 °FWarm.No wind70%29.73 "HgN/A
8:00 PM90 °FHot.1 mph56%29.75 "HgN/A
7:00 PM91 °FHot.2 mph51%29.77 "HgN/A
6:00 PM94 °FExtremely hot.5 mph41%29.78 "HgN/A
5:00 PM95 °FExtremely hot.3 mph35%29.80 "HgN/A
4:00 PM95 °FExtremely hot.1 mph36%29.83 "HgN/A
3:00 PM93 °FHot.2 mph38%29.85 "HgN/A
2:00 PM91 °FHot.3 mph41%29.88 "HgN/A
1:00 PM89 °FHot.3 mph46%29.90 "HgN/A
12:00 PM85 °FWarm.5 mph53%29.93 "HgN/A
11:00 AM82 °FWarm.3 mph59%29.95 "HgN/A
10:00 AM79 °FWarm.3 mph62%29.98 "HgN/A
9:00 AM76 °FMild.3 mph67%30.00 "HgN/A
8:00 AM73 °FPassing clouds.2 mph77%30.02 "HgN/A
7:00 AM69 °FMild.2 mph87%30.03 "HgN/A
6:00 AM66 °FMild.1 mph95%30.04 "HgN/A
5:00 AM66 °FMild.No wind96%30.04 "HgN/A
4:00 AM68 °FMild.2 mph94%30.05 "HgN/A
3:00 AM67 °FMild.1 mph95%30.06 "HgN/A
2:00 AM67 °FMild.No wind93%30.07 "HgN/A
1:00 AM69 °FMild.1 mph92%30.07 "HgN/A
12:00 AM71 °FMild.1 mph86%30.06 "HgN/A
Weather by CustomWeather, © 2015

See weather overviewHow to use our weather pages